[Iaude] MPEC B164: 2024 BP3 [a=1.10,e=0.41,i=10.5,H=27.5]
    mpec at marsden.cfa.harvard.edu 
    mpec at marsden.cfa.harvard.edu
       
    Tue Jan 30 22:10:55 EST 2024
    
    
  
M.P.E.C. 2024-B164                             Issued 2024 January 31, 03:09 UT
     The Minor Planet Electronic Circulars contain information on unusual
         minor planets, routine data on comets and natural satellites,
         and occasional editorial announcements.  They are published
    on behalf of Division F of the International Astronomical Union by the
          Minor Planet Center, Smithsonian Astrophysical Observatory,
                          Cambridge, MA 02138, U.S.A.
			  
             Prepared using the Tamkin Foundation Computer Network
                              MPC at CFA.HARVARD.EDU
            URL https://www.minorplanetcenter.net/    ISSN 1523-6714
                                    2024 BP3                                    
Observations:
     K24B03P*1C2024 01 30.30701208 37 53.562+12 09 23.44               VEB164G96
     K24B03P 1C2024 01 30.31220708 37 43.597+12 07 04.73         18.61GVEB164G96
     K24B03P 1C2024 01 30.32259508 37 23.794+12 02 29.51               VEB164G96
     K24B03P 1C2024 01 30.36017008 36 14.231+11 46 13.84         18.76GVEB164G96
     K24B03P 1C2024 01 30.36035308 36 13.885+11 46 09.26         18.86GVEB164G96
     K24B03P 1C2024 01 30.36053708 36 13.561+11 46 04.37         18.82GVEB164G96
     K24B03P 1C2024 01 30.36072008 36 13.216+11 45 59.76         18.96GVEB164G96
     K24B03P 1C2024 01 30.41732308 34 34.810+11 22 26.70         18.39GVEB164G96
     K24B03P 1C2024 01 30.41762208 34 34.300+11 22 19.90         18.75GVEB164G96
     K24B03P 1C2024 01 30.41792208 34 33.810+11 22 12.40         18.84GVEB164G96
     K24B03P KC2024 01 30.77328 08 27 38.61 +09 18 58.0          19.5 GXEB164G02
     K24B03P KB2024 01 30.77849 08 27 32.16 +09 17 55.6          19.3 GXEB164M45
     K24B03P KB2024 01 30.78070 08 27 29.56 +09 17 18.0          19.6 GXEB164M45
     K24B03P KB2024 01 30.78291 08 27 27.00 +09 16 39.9          19.3 GXEB164M45
     K24B03P KC2024 01 30.78375 08 27 26.43 +09 16 00.5          19.3 GXEB164G02
     K24B03P KC2024 01 30.79441 08 27 14.12 +09 13 00.6          19.3 GXEB164G02
     K24B03P KB2024 01 30.82537 08 26 40.91 +09 04 43.7          19.2 RZEB164106
     K24B03P KB2024 01 30.82831 08 26 37.54 +09 03 55.3          18.4 RZEB164106
     K24B03P KB2024 01 30.83125 08 26 34.23 +09 03 07.4          19.1 RZEB164106
     K24B03P KB2024 01 30.83410 08 26 30.96 +09 02 20.7          18.6 RZEB164106
     K24B03P KB2024 01 30.84539308 26 22.92 +08 59 21.2          19.7 GXEB164958
     K24B03P KB2024 01 30.85170408 26 15.90 +08 57 40.3          19.3 GXEB164958
     K24B03P KB2024 01 30.85796008 26 08.87 +08 56 01.6          19.3 GXEB164958
     K24B03P KB2024 01 30.87373508 25 50.95 +08 51 44.9          20.3 GXEB164I93
     K24B03P KB2024 01 30.87651008 25 47.86 +08 51 01.5          19.5 GXEB164I93
     K24B03P KB2024 01 30.87918908 25 44.90 +08 50 19.1          18.7 GXEB164I93
     K24B03P KC2024 01 30.96336708 24 08.33 +08 28 48.2          18.8 GVEB164L01
     K24B03P KC2024 01 30.96440308 24 07.22 +08 28 32.5          18.9 GVEB164L01
     K24B03P KC2024 01 30.96544108 24 06.13 +08 28 16.7          18.6 GVEB164L01
     K24B03P KC2024 01 30.96648308 24 05.06 +08 28 01.5          18.9 GVEB164L01
     K24B03P KC2024 01 30.96752208 24 03.95 +08 27 46.4          19.0 GVEB164L01
     K24B03P KC2024 01 30.97128808 24 01.86 +08 26 46.6                VEB164204
     K24B03P KC2024 01 30.97400208 23 58.19 +08 26 17.6          19.2 GVEB164104
     K24B03P KC2024 01 30.97931108 23 52.63 +08 24 58.6          19.4 GVEB164104
     K24B03P KC2024 01 30.97979808 23 52.93 +08 24 40.5                VEB164204
     K24B03P KC2024 01 30.98839408 23 43.99 +08 22 34.1          19.6 GVEB164204
Observer details:
104 San Marcello Pistoiese.  Observers P. Bacci, M. Maestripieri.  Measurers
    P. Bacci, L. Tesi, G. Fagioli.  0.60-m F4 Reflector + CCD.
106 Crni Vrh.  Observer H. Mikuz.  0.60-m f/3.3 reflector + CMO.
204 Schiaparelli Observatory.  Observer L. Buzzi.  0.84-m f/3.5 reflector +
    CMO.
958 Observatoire de Dax.  Observer P. Dupouy.  0.50-m f/4.5 Reflector + CMO.
G02 KYSUCE Observatory, Kysucke Nove Mesto.  Observer M. Urbanik.  0.40-m
    f/6.8 Corrected Dall-Kirkham + CCD.
G96 Mt. Lemmon Survey.  Observer D. Rankin.  Measurers T. Beuden, V. F.
    Carvajal, D. Fay, J. B. Fazekas, D. C. Fuls, A. R. Gibbs, A. D. Grauer, H.
    Groeller, J. K. Hogan, R. A. Kowalski, S. M. Larson, G. J. Leonard, D.
    Rankin, R. L. Seaman, F. C. Shelly, K. W. Wierzchos.  1.5-m reflector +
    10K CCD.
I93 St Pardon de Conques.  Observer F. Losse.  0.40-m f/3.7 reflector + CMO.
L01 Visnjan Observatory, Tican.  Observer K. Korlevic.  1.0-m f/2.9 reflector
    + CCD.
M45 Starhopper Observatory, Sfantu Gheorghe.  Observer F. Ursache.  0.41-m
    f/7.5 reflector + CMO.
Orbital elements:
2024 BP3                                                 Earth MOID = 0.0037 AU
Epoch 2023 Sept. 13.0 TT = JDT 2460200.5                Veres                   
M 295.06361              (2000.0)            P               Q                  
n   0.85451588     Peri.   78.11084     +0.87673153     -0.45969412             
a   1.0998226      Node   309.08378     +0.33886017     +0.79912693             
e   0.4146156      Incl.   10.50356     +0.34134383     +0.38739833             
P   1.15           H   27.52          G   0.15           U   7                  
Residuals in seconds of arc
240130 G96  0.5-  0.5-    240130 M45  0.4-  0.2-    240130 I93  0.4-  0.1+
240130 G96  0.3-  0.6-    240130 M45  0.1+  0.7-    240130 I93  0.5-  0.2-
240130 G96  0.4-  0.5-    240130 G02  0.5-  0.7+    240130 L01  0.3-  0.4+
240130 G96  0.2+  0.1-    240130 G02  0.6-  0.6+    240130 L01  0.5-  0.1+
240130 G96  0.0   0.0     240130 106  0.3+  0.1+    240130 L01  0.4-  0.1-
240130 G96  0.1+  0.2-    240130 106  0.0   0.1-    240130 L01  0.1+  0.2+
240130 G96  0.1-  0.1-    240130 106  0.6+  0.1+    240130 L01  0.1-  0.6+
240130 G96  0.1+  0.6-    240130 106  0.2+  0.2-    240130 204  0.1+  0.1+
240130 G96  0.1-  0.1-    240130 958  0.9+  0.9-    240130 104  0.0   0.1+
240130 G96  0.1+  0.3-    240130 958  0.8+  0.4-    240130 104  0.2+  0.3-
240130 G02  0.5+  0.1+    240130 958  0.4-  1.0+    240130 204  0.1-  0.0
240130 M45  0.4-  0.2-    240130 I93  0.1-  0.3-    240130 204  0.1-  0.0
Ephemeris:
2024 BP3                 a,e,i = 1.10, 0.41, 11                  q = 0.6438
Date    TT    R. A. (2000) Decl.     Delta      r    Elong.  Phase     V
2024 01 01    19 43 34.2 -00 21 44   0.2318  0.7842    27.2   145.1    31.4
...
2024 01 16    19 40 51.1 +03 08 18   0.1004  0.8932    24.3   153.0    31.3
...
2024 01 24    19 27 26.4 +07 11 24   0.03634 0.9529    29.8   149.1    28.5
...
2024 01 30    08 48 21.2 +14 55 02   0.01225 0.9972   176.9     3.0    18.3
2024 01 31    08 23 37.2 +08 24 27   0.01976 1.0045   168.6    11.2    19.7
2024 02 01    08 12 56.6 +05 29 17   0.02749 1.0117   164.3    15.3    20.6
...
2024 02 07    07 56 36.7 +00 57 55   0.07499 1.0545   154.9    23.4    23.1
...
2024 02 15    07 54 16.2 +00 07 37   0.1404  1.1096   148.4    27.8    24.7
...
2024 03 01    08 00 27.6 +00 23 59   0.2713  1.2051   137.6    33.7    26.5
M. P. C. Staff               (C) Copyright 2024 MPC           M.P.E.C. 2024-B164
    
    
More information about the Iaude
mailing list